Flag for Cuba Weather past 2 weeks in Santiago de Cuba, Cuba

Now
86 °F

Partly sunny.


Feels Like: 95 °F
Forecast: N/A
Wind: 6 mph from South

Location: Santiago De Cuba - Oriente

Current Time: Aug 28, 2014 at 7:46:50 PM

Latest Report: Aug 28, 2014 at 6:50 PM


Visibility: 6 mi

Pressure: 29.92 "Hg

Humidity: 70%

Dew point: 75 °F

Location of Santiago de CubaLocation

Historic Weather in Santiago de Cuba — Graph

°F

Santiago de Cuba temperature yesterday

Maximum temperature yesterday: 88 °F (at 9:56 AM)
Minimum temperature yesterday: 79 °F (at 7:50 AM)
Average temperature yesterday: 84 °F

Past Weeks' High & Low Weather Summary

 TemperatureHumidityPressure
High95 °F (Aug 22, 11:50 AM)94% (Aug 24, 9:50 PM)30.07 "Hg (Aug 24, 9:50 PM)
Low75 °F (Aug 17, 4:50 AM)41% (Aug 22, 11:50 AM)29.71 "Hg (Aug 24, 4:50 PM)
Average83 °F71%29.95 "Hg
* Reported Aug 13 6:50 PM — Aug 28 6:50 PM, Santiago de Cuba, Weather by CustomWeather, © 2014

Note: Actual official high and low records may vary slightly from our data, if they occured in-between our weather recording intervals... More about our weather records

Advertising

Santiago de Cuba weather history for previous 24 hours

 ConditionsComfort  
Time TempWeatherWind HumidityBarometerVisibility
6:50 PM
Aug 28
86 °FPartly sunny.6 mph70%29.92 "Hg6 mi
5:52 PM86 °FScattered clouds.7 mph75%29.92 "Hg6 mi
4:51 PM86 °FPartly sunny.12 mph70%29.92 "Hg6 mi
3:51 PM88 °FScattered clouds.10 mph66%29.92 "Hg6 mi
2:52 PM88 °FScattered clouds.8 mph62%29.92 "Hg6 mi
1:51 PM88 °FScattered clouds.9 mph62%29.95 "Hg6 mi
12:50 PM88 °FScattered clouds.9 mph59%29.98 "Hg6 mi
11:50 AM88 °FPassing clouds.9 mph62%29.98 "Hg6 mi
10:53 AM91 °FPassing clouds.7 mph52%29.98 "Hg6 mi
9:50 AM86 °FPassing clouds.9 mph66%29.98 "Hg6 mi
8:50 AM82 °FPassing clouds.9 mph74%29.98 "Hg6 mi
7:50 AM79 °FPassing clouds.7 mph84%29.98 "Hg6 mi
6:52 AM77 °FPassing clouds.6 mph89%29.98 "Hg6 mi
5:52 AM77 °FPassing clouds.7 mph89%29.95 "Hg6 mi
4:52 AM77 °FPassing clouds.6 mph89%29.98 "Hg6 mi
3:52 AM77 °FPassing clouds.6 mph89%29.98 "Hg6 mi
2:52 AM77 °FPassing clouds.5 mph89%29.98 "Hg6 mi
1:52 AM77 °FPassing clouds.5 mph89%30.01 "Hg6 mi
12:51 AM79 °FPassing clouds.3 mph84%30.01 "Hg6 mi
11:51 PM
Aug 27
81 °FPassing clouds.3 mph79%30.01 "Hg6 mi
10:50 PM82 °FPassing clouds.3 mph79%30.04 "Hg6 mi
9:52 PM84 °FPassing clouds.3 mph70%30.01 "Hg6 mi
8:51 PM84 °FPassing clouds.5 mph70%29.98 "Hg6 mi
7:51 PM84 °FPassing clouds.6 mph74%29.98 "Hg6 mi
Weather by CustomWeather, © 2014

See weather overviewHow to use our weather pages